This demonstration page uses our WeatherBlox Daily Observations layout. Learn more.

Left ArrowRight Arrow

41.12389, -100.76542

Hourly Observations for May 2, 2017

Temp ( °F °C ) Dew Point ( °F °C ) Humidity (%) Winds ( mph kmh ) Pressure ( in mb ) Visibility ( mi km ) Precip ( " mm )
12:53 am 00:53 Mostly Clear 38 3.3 35 1.7 89 89 NNW 6 9 29.96 1014 10 16 0.00 0.00
1:53 am 01:53 Clear 36 2.2 33 0.6 89 89 NW 8 13 29.96 1015 10 16 0.00 0.00
2:53 am 02:53 Clear 34 1.1 32 0 92 92 NNW 7 11 29.97 1015 10 16 0.00 0.00
3:53 am 03:53 Clear 34 1.1 32 0 92 92 NW 6 9 29.98 1015 10 16 0.00 0.00
4:53 am 04:53 Clear 32 0 31 -0.6 96 96 NW 7 11 30.00 1016 10 16 0.00 0.00
5:53 am 05:53 Clear 33 0.6 32 0 96 96 NNW 6 9 30.00 1016 10 16 0.00 0.00
6:53 am 06:53 Sunny 35 1.7 33 0.6 93 93 WSW 5 7 30.01 1016 10 16 0.00 0.00
7:53 am 07:53 Partly Cloudy 42 5.6 37 2.8 82 82 NW 8 13 30.01 1016 10 16 0.00 0.00
8:53 am 08:53 Partly Cloudy 46 7.8 39 3.9 77 77 W 5 7 30.01 1016 10 16 0.00 0.00
9:53 am 09:53 Mostly Cloudy 51 10.6 39 3.9 64 64 W 5 7 30.02 1017 10 16 0.00 0.00
10:53 am 10:53 Cloudy 53 11.7 38 3.3 57 57 W 5 7 30.03 1017 10 16 0.00 0.00
11:53 am 11:53 Cloudy 54 12.2 37 2.8 53 53 W 5 7 30.04 1017 10 16 0.00 0.00
12:53 pm 12:53 Cloudy 56 13.3 37 2.8 49 49 WSW 9 15 30.04 1017 10 16 0.00 0.00
1:53 pm 13:53 Cloudy 58 14.4 34 1.1 41 41 WSW 6 9 30.03 1017 10 16 0.00 0.00
2:53 pm 14:53 Cloudy with Light Rain 55 12.8 34 1.1 45 45 Calm 30.04 1017 10 16 0.00 0.03
3:53 pm 15:53 Cloudy with Light Rain 55 12.8 39 3.9 55 55 NW 8 13 30.04 1017 10 16 0.00 0.03
4:53 pm 16:53 Cloudy 53 11.7 40 4.4 61 61 SSW 10 17 30.03 1017 10 16 0.00 0.03
5:53 pm 17:53 Cloudy 53 11.7 40 4.4 61 61 SW 10 17 30.03 1017 10 16 0.00 0.03
6:53 pm 18:53 Cloudy 52 11.1 40 4.4 64 64 SSW 5 7 30.03 1017 10 16 0.00 0.00
7:53 pm 19:53 Cloudy 51 10.6 40 4.4 66 66 S 3 6 30.02 1017 10 16 0.00 0.00
8:53 pm 20:53 Cloudy 49 9.4 41 5 74 74 SW 3 6 30.04 1017 10 16 0.00 0.00
9:53 pm 21:53 Cloudy 48 8.9 42 5.6 80 80 Calm 30.04 1017 10 16 0.00 0.00
10:53 pm 22:53 Mostly Clear 43 6.1 40 4.4 89 89 Calm 30.06 1018 10 16 0.00 0.00
11:53 pm 23:53 Cloudy 42 5.6 40 4.4 92 92 Calm 30.06 1018 10 16 0.00 0.00

Powered by AerisWeather